ProjectID,Date,Electric Generation,Electric Utility Import,Facility Electric Load
,YYYY-MM-DD,kW,kW,kW
156,2013-12-12,1.8,,1.8
156,2013-12-13,6.153333333333333,,6.153333333333333
156,2013-12-14,1.54,,1.54
156,2013-12-15,0.02666666666666667,,0.02666666666666667
156,2013-12-16,0.5866666666666667,,0.5866666666666667
156,2013-12-17,0.06,,0.06
156,2013-12-18,0.02666666666666667,,0.02666666666666667
156,2013-12-19,5.12,,5.12
156,2013-12-20,2.2666666666666666,,2.2666666666666666
156,2013-12-21,4.3999999999999995,,4.3999999999999995
156,2013-12-22,6.1866666666666665,,6.1866666666666665
156,2013-12-23,12.773333333333333,,12.773333333333333
156,2013-12-24,0.6666666666666666,,0.6666666666666666
156,2013-12-25,1.1066666666666667,,1.1066666666666667
156,2013-12-26,0.47333333333333333,,0.47333333333333333
156,2013-12-27,0.16,,0.16
156,2013-12-28,39.78,,39.78
156,2013-12-29,6.06,,6.06
156,2013-12-30,15.746666666666668,,15.746666666666668
156,2013-12-31,2.62,,2.62
156,2014-01-01,0.0,,0.0
156,2014-01-02,2.8333333333333335,,2.8333333333333335
156,2014-01-03,6.8933333333333335,,6.8933333333333335
156,2014-01-04,39.333333333333336,,39.333333333333336
156,2014-01-05,13.473333333333334,,13.473333333333334
156,2014-01-06,9.326666666666666,,9.326666666666666
156,2014-01-07,9.26,,9.26
156,2014-01-08,3.76,,3.76
156,2014-01-09,6.94,,6.94
156,2014-01-10,3.686666666666667,,3.686666666666667
156,2014-01-11,5.8,,5.8
156,2014-01-12,7.613333333333333,,7.613333333333333
156,2014-01-13,32.08,,32.08
156,2014-01-14,15.219999999999999,,15.219999999999999
156,2014-01-15,22.680000000000003,,22.680000000000003
156,2014-01-16,5.1466666666666665,,5.1466666666666665
156,2014-01-17,40.5,,40.5
156,2014-01-18,13.059916666666666,,13.059916666666666
156,2014-01-19,10.586583333333333,,10.586583333333333
156,2014-01-20,1.0066666666666666,,1.0066666666666666
156,2014-01-21,3.1733333333333333,,3.1733333333333333
156,2014-01-22,2.67325,,2.67325
156,2014-01-23,2.18675,,2.18675
156,2014-01-24,5.619916666666666,,5.619916666666666
156,2014-01-25,12.946625,,12.946625
156,2014-01-26,7.960041666666666,,7.960041666666666
156,2014-01-27,28.16,,28.16
156,2014-01-28,39.79333333333333,,39.79333333333333
156,2014-01-29,40.26,,40.26
156,2014-01-30,61.48,,61.48
156,2014-01-31,12.506666666666668,,12.506666666666668
156,2014-02-01,14.340000000000002,,14.340000000000002
156,2014-02-02,1.4800000000000002,,1.4800000000000002
156,2014-02-03,5.8933333333333335,,5.8933333333333335
156,2014-02-04,7.473333333333334,,7.473333333333334
156,2014-02-05,0.04666666666666667,,0.04666666666666667
156,2014-02-06,0.7133333333333334,,0.7133333333333334
156,2014-02-07,7.546666666666667,,7.546666666666667
156,2014-02-08,6.853333333333333,,6.853333333333333
156,2014-02-09,0.8666666666666667,,0.8666666666666667
156,2014-02-10,1.0066666666666666,,1.0066666666666666
156,2014-02-11,1.2,,1.2
156,2014-02-12,1.8533333333333333,,1.8533333333333333
156,2014-02-13,0.9733333333333333,,0.9733333333333333
156,2014-02-14,0.9466666666666667,,0.9466666666666667
156,2014-02-15,11.926666666666668,,11.926666666666668
156,2014-02-16,4.16,,4.16
156,2014-02-17,11.793333333333335,,11.793333333333335
156,2014-02-18,18.746624999999998,,18.746624999999998
156,2014-02-19,53.613375,,53.613375
156,2014-02-20,25.113375,,25.113375
156,2014-02-21,25.166666666666668,,25.166666666666668
156,2014-02-22,79.406625,,79.406625
156,2014-02-23,88.92,,88.92
156,2014-02-24,53.153333333333336,,53.153333333333336
156,2014-02-25,39.886625,,39.886625
156,2014-02-26,50.086666666666666,,50.086666666666666
156,2014-02-27,18.180041666666668,,18.180041666666668
156,2014-02-28,87.986625,,87.986625
156,2014-03-01,0.0,,0.0
156,2014-03-02,1.9066666666666665,,1.9066666666666665
156,2014-03-03,3.266583333333333,,3.266583333333333
156,2014-03-04,1.9266666666666667,,1.9266666666666667
156,2014-03-05,3.720083333333333,,3.720083333333333
156,2014-03-06,8.359916666666667,,8.359916666666667
156,2014-03-07,75.273375,,75.273375
156,2014-03-08,19.95329166666667,,19.95329166666667
156,2014-03-09,76.63995833333333,,76.63995833333333
156,2014-03-10,72.42675,,72.42675
156,2014-03-11,87.09329166666667,,87.09329166666667
156,2014-03-12,1.2534166666666666,,1.2534166666666666
156,2014-03-13,9.506666666666666,,9.506666666666666
156,2014-03-14,80.51333333333334,,80.51333333333334
156,2014-03-15,28.95329166666667,,28.95329166666667
156,2014-03-16,112.91991666666667,,112.91991666666667
156,2014-03-17,112.07341666666667,,112.07341666666667
156,2014-03-18,114.74008333333335,,114.74008333333335
156,2014-03-19,37.07320833333333,,37.07320833333333
156,2014-03-20,22.540041666666667,,22.540041666666667
156,2014-03-21,125.64666666666666,,125.64666666666666
156,2014-03-22,48.26658333333333,,48.26658333333333
156,2014-03-23,74.40675,,74.40675
156,2014-03-24,113.45329166666666,,113.45329166666666
156,2014-03-25,111.98666666666666,,111.98666666666666
156,2014-03-26,128.28008333333335,,128.28008333333335
156,2014-03-27,61.97333333333333,,61.97333333333333
156,2014-03-28,15.459958333333333,,15.459958333333333
156,2014-03-29,31.21320833333333,,31.21320833333333
156,2014-03-30,3.033541666666667,,3.033541666666667
156,2014-03-31,84.40004166666667,,84.40004166666667
156,2014-04-01,70.23991666666667,,70.23991666666667
156,2014-04-02,134.60675,,134.60675
156,2014-04-03,74.17320833333333,,74.17320833333333
156,2014-04-04,24.300124999999998,,24.300124999999998
156,2014-04-05,57.42641666666666,,57.42641666666666
156,2014-04-06,133.98016666666666,,133.98016666666666
156,2014-04-07,32.059875,,32.059875
156,2014-04-08,54.046875,,54.046875
156,2014-04-09,137.02670833333335,,137.02670833333335
156,2014-04-10,111.15983333333332,,111.15983333333332
156,2014-04-11,98.63345833333334,,98.63345833333334
156,2014-04-12,117.06641666666667,,117.06641666666667
156,2014-04-13,90.47362500000001,,90.47362500000001
156,2014-04-14,39.41308333333333,,39.41308333333333
156,2014-04-15,5.480125,,5.480125
156,2014-04-16,121.32662499999999,,121.32662499999999
156,2014-04-17,135.76666666666668,,135.76666666666668
156,2014-04-18,111.67333333333333,,111.67333333333333
156,2014-04-19,143.34666666666666,,143.34666666666666
156,2014-04-20,137.66,,137.66
156,2014-04-21,117.38666666666667,,117.38666666666667
156,2014-04-22,28.126666666666665,,28.126666666666665
156,2014-04-23,73.74666666666667,,73.74666666666667
156,2014-04-24,148.29333333333332,,148.29333333333332
156,2014-04-25,74.22666666666667,,74.22666666666667
156,2014-04-26,36.82666666666667,,36.82666666666667
156,2014-04-27,136.99333333333334,,136.99333333333334
156,2014-04-28,125.56041666666665,,125.56041666666665
156,2014-04-29,33.03958333333333,,33.03958333333333
156,2014-04-30,26.613333333333333,,26.613333333333333
156,2014-05-01,82.86666666666666,,82.86666666666666
156,2014-05-02,54.77333333333333,,54.77333333333333
156,2014-05-03,52.74,,52.74
156,2014-05-04,108.09333333333332,,108.09333333333332
156,2014-05-05,119.18041666666666,,119.18041666666666
156,2014-05-06,150.46583333333334,,150.46583333333334
156,2014-05-07,79.99374999999999,,79.99374999999999
156,2014-05-08,110.27999999999999,,110.27999999999999
156,2014-05-09,96.5,,96.5
156,2014-05-10,110.94,,110.94
156,2014-05-11,146.55333333333334,,146.55333333333334
156,2014-05-12,102.64666666666666,,102.64666666666666
156,2014-05-13,108.84666666666668,,108.84666666666668
156,2014-05-14,109.63375,,109.63375
156,2014-05-15,41.86625,,41.86625
156,2014-05-16,92.86666666666667,,92.86666666666667
156,2014-05-17,136.84,,136.84
156,2014-05-18,152.24666666666667,,152.24666666666667
156,2014-05-19,114.32666666666667,,114.32666666666667
156,2014-05-20,79.97333333333333,,79.97333333333333
156,2014-05-21,87.57291666666667,,87.57291666666667
156,2014-05-22,92.82041666666667,,92.82041666666667
156,2014-05-23,59.64666666666667,,59.64666666666667
156,2014-05-24,151.73375000000001,,151.73375000000001
156,2014-05-25,149.59291666666667,,149.59291666666667
156,2014-05-26,132.15375,,132.15375
156,2014-05-27,100.05958333333332,,100.05958333333332
156,2014-05-28,133.44041666666666,,133.44041666666666
156,2014-05-29,106.71916666666668,,106.71916666666668
156,2014-05-30,143.5,,143.5
156,2014-05-31,152.99375,,152.99375
156,2014-06-01,142.81375,,142.81375
156,2014-06-02,120.95291666666667,,120.95291666666667
156,2014-06-03,91.03333333333335,,91.03333333333335
156,2014-06-04,100.08,,100.08
156,2014-06-05,111.21375,,111.21375
156,2014-06-06,148.28,,148.28
156,2014-06-07,149.95291666666665,,149.95291666666665
156,2014-06-08,51.300000000000004,,51.300000000000004
156,2014-06-09,112.59333333333332,,112.59333333333332
156,2014-06-10,102.13333333333333,,102.13333333333333
156,2014-06-11,82.60041666666667,,82.60041666666667
156,2014-06-12,68.98625,,68.98625
156,2014-06-13,79.09291666666667,,79.09291666666667
156,2014-06-14,84.90041666666666,,84.90041666666666
156,2014-06-15,150.31958333333333,,150.31958333333333
156,2014-06-16,123.78750000000001,,123.78750000000001
156,2014-06-17,118.98625,,118.98625
156,2014-06-18,75.84708333333333,,75.84708333333333
156,2014-06-19,131.87333333333333,,131.87333333333333
156,2014-06-20,134.22041666666667,,134.22041666666667
156,2014-06-21,135.86583333333334,,135.86583333333334
156,2014-06-22,147.25375,,147.25375
156,2014-06-23,115.75916666666666,,115.75916666666666
156,2014-06-24,110.10666666666667,,110.10666666666667
156,2014-06-25,53.61333333333334,,53.61333333333334
156,2014-06-26,127.27333333333333,,127.27333333333333
156,2014-06-27,140.36083333333332,,140.36083333333332
156,2014-06-28,128.84,,128.84
156,2014-06-29,110.19916666666667,,110.19916666666667
156,2014-06-30,122.76666666666667,,122.76666666666667
156,2014-07-01,120.83333333333333,,120.83333333333333
156,2014-07-02,104.74083333333334,,104.74083333333334
156,2014-07-03,58.333333333333336,,58.333333333333336
156,2014-07-04,127.95333333333333,,127.95333333333333
156,2014-07-05,151.92583333333332,,151.92583333333332
156,2014-07-06,147.80708333333334,,147.80708333333334
156,2014-07-07,39.76708333333333,,39.76708333333333
156,2014-07-08,69.75916666666667,,69.75916666666667
156,2014-07-09,143.34125,,143.34125
156,2014-07-10,148.30583333333334,,148.30583333333334
156,2014-07-11,144.04666666666665,,144.04666666666665
156,2014-07-12,139.78666666666666,,139.78666666666666
156,2014-07-13,53.42041666666666,,53.42041666666666
156,2014-07-14,94.69291666666668,,94.69291666666668
156,2014-07-15,109.35291666666666,,109.35291666666666
156,2014-07-16,131.81375,,131.81375
156,2014-07-17,145.26041666666666,,145.26041666666666
156,2014-07-18,139.6925,,139.6925
156,2014-07-19,34.34666666666667,,34.34666666666667
156,2014-07-20,77.6275,,77.6275
156,2014-07-21,133.95958333333334,,133.95958333333334
156,2014-07-22,135.05333333333334,,135.05333333333334
156,2014-07-23,45.807500000000005,,45.807500000000005
156,2014-07-24,143.78625,,143.78625
156,2014-07-25,132.06625,,132.06625
156,2014-07-26,106.63958333333333,,106.63958333333333
156,2014-07-27,111.92708333333333,,111.92708333333333
156,2014-07-28,22.64708333333333,,22.64708333333333
156,2014-07-29,98.52583333333332,,98.52583333333332
156,2014-07-30,128.01333333333335,,128.01333333333335
156,2014-07-31,123.26041666666667,,123.26041666666667
156,2014-08-01,126.38666666666667,,126.38666666666667
156,2014-08-02,108.32041666666667,,108.32041666666667
156,2014-08-03,57.3125,,57.3125
156,2014-08-04,125.89416666666666,,125.89416666666666
156,2014-08-05,58.95333333333334,,58.95333333333334
156,2014-08-06,111.90625,,111.90625
156,2014-08-07,120.23958333333333,,120.23958333333333
156,2014-08-08,120.99333333333334,,120.99333333333334
156,2014-08-09,125.82041666666667,,125.82041666666667
156,2014-08-10,127.98041666666667,,127.98041666666667
156,2014-08-11,94.07291666666667,,94.07291666666667
156,2014-08-12,69.79958333333333,,69.79958333333333
156,2014-08-13,68.39333333333333,,68.39333333333333
156,2014-08-14,95.6275,,95.6275
156,2014-08-15,111.43374999999999,,111.43374999999999
156,2014-08-16,59.84625,,59.84625
156,2014-08-17,126.13916666666667,,126.13916666666667
156,2014-08-18,132.14708333333334,,132.14708333333334
156,2014-08-19,129.66666666666666,,129.66666666666666
156,2014-08-20,66.5,,66.5
156,2014-08-21,118.17333333333333,,118.17333333333333
156,2014-08-22,96.18624999999999,,96.18624999999999
156,2014-08-23,93.23416666666667,,93.23416666666667
156,2014-08-24,105.12625000000001,,105.12625000000001
156,2014-08-25,106.01333333333334,,106.01333333333334
156,2014-08-26,115.45291666666667,,115.45291666666667
156,2014-08-27,81.38666666666667,,81.38666666666667
156,2014-08-28,116.02749999999999,,116.02749999999999
156,2014-08-29,110.23958333333333,,110.23958333333333
156,2014-08-30,98.98708333333333,,98.98708333333333
156,2014-08-31,37.65333333333333,,37.65333333333333
156,2014-09-01,81.22666666666667,,81.22666666666667
156,2014-09-02,32.12,,32.12
156,2014-09-03,114.79291666666667,,114.79291666666667
156,2014-09-04,114.68624999999999,,114.68624999999999
156,2014-09-05,94.72791666666666,,94.72791666666666
156,2014-09-06,38.46583333333333,,38.46583333333333
156,2014-09-07,120.62625000000001,,120.62625000000001
156,2014-09-08,110.82708333333333,,110.82708333333333
156,2014-09-09,94.17291666666667,,94.17291666666667
156,2014-09-10,65.01333333333334,,65.01333333333334
156,2014-09-11,27.354166666666668,,27.354166666666668
156,2014-09-12,42.040416666666665,,42.040416666666665
156,2014-09-13,51.71875,,51.71875
156,2014-09-14,88.99333333333334,,88.99333333333334
156,2014-09-15,68.20708333333333,,68.20708333333333
156,2014-09-16,100.53375,,100.53375
156,2014-09-17,88.77999999999999,,88.77999999999999
156,2014-09-18,69.48583333333333,,69.48583333333333
156,2014-09-19,112.55333333333334,,112.55333333333334
156,2014-09-20,92.54041666666666,,92.54041666666666
156,2014-09-21,69.08041666666666,,69.08041666666666
156,2014-09-22,38.06,,38.06
156,2014-09-23,93.17958333333333,,93.17958333333333
156,2014-09-24,103.28666666666668,,103.28666666666668
156,2014-09-25,107.29291666666667,,107.29291666666667
156,2014-09-26,101.6275,,101.6275
156,2014-09-27,99.3725,,99.3725
156,2014-09-28,90.39333333333333,,90.39333333333333
156,2014-09-29,97.42041666666667,,97.42041666666667
156,2014-09-30,65.85291666666667,,65.85291666666667
156,2014-10-01,52.23416666666666,,52.23416666666666
156,2014-10-02,93.02625,,93.02625
156,2014-10-03,66.56,,66.56
156,2014-10-04,42.08708333333333,,42.08708333333333
156,2014-10-05,34.13291666666667,,34.13291666666667
156,2014-10-06,60.78,,60.78
156,2014-10-07,59.153333333333336,,59.153333333333336
156,2014-10-08,44.752916666666664,,44.752916666666664
156,2014-10-09,92.78750000000001,,92.78750000000001
156,2014-10-10,73.01333333333334,,73.01333333333334
156,2014-10-11,85.24708333333334,,85.24708333333334
156,2014-10-12,91.23958333333333,,91.23958333333333
156,2014-10-13,44.85166666666667,,44.85166666666667
156,2014-10-14,48.51583333333334,,48.51583333333334
156,2014-10-15,20.184583333333332,,20.184583333333332
156,2014-10-16,43.440416666666664,,43.440416666666664
156,2014-10-17,30.127499999999998,,30.127499999999998
156,2014-10-18,17.919166666666666,,17.919166666666666
156,2014-10-19,46.88791666666666,,46.88791666666666
156,2014-10-20,26.492500000000003,,26.492500000000003
156,2014-10-21,19.78125,,19.78125
156,2014-10-22,16.6325,,16.6325
156,2014-10-23,79.47916666666667,,79.47916666666667
156,2014-10-24,66.88833333333334,,66.88833333333334
156,2014-10-25,47.239583333333336,,47.239583333333336
156,2014-10-26,13.965833333333334,,13.965833333333334
156,2014-10-27,66.34666666666666,,66.34666666666666
156,2014-10-28,38.80708333333333,,38.80708333333333
156,2014-10-29,7.34625,,7.34625
156,2014-10-30,43.96125,,43.96125
156,2014-10-31,19.47125,,19.47125
156,2014-11-01,8.952916666666667,,8.952916666666667
156,2014-11-02,77.20083333333334,,77.20083333333334
156,2014-11-03,54.73416666666666,,54.73416666666666
156,2014-11-04,25.765833333333333,,25.765833333333333
156,2014-11-05,54.22125,,54.22125
156,2014-11-06,12.1925,,12.1925
156,2014-11-07,25.961250000000003,,25.961250000000003
156,2014-11-08,19.304583333333333,,19.304583333333333
156,2014-11-09,21.28125,,21.28125
156,2014-11-10,46.833333333333336,,46.833333333333336
156,2014-11-11,59.552083333333336,,59.552083333333336
156,2014-11-12,14.44,,14.44
156,2014-11-13,3.6145833333333335,,3.6145833333333335
156,2014-11-14,27.833333333333332,,27.833333333333332
156,2014-11-15,6.21875,,6.21875
156,2014-11-16,6.815,,6.815
156,2014-11-17,1.83875,,1.83875
156,2014-11-18,0.020833333333333332,,0.020833333333333332
156,2014-11-19,0.020833333333333332,,0.020833333333333332
156,2014-11-20,0.025833333333333333,,0.025833333333333333
156,2014-11-21,0.034166666666666665,,0.034166666666666665
156,2014-11-22,0.025833333333333333,,0.025833333333333333
156,2014-11-23,0.32541666666666663,,0.32541666666666663
156,2014-11-24,15.007916666666667,,15.007916666666667
156,2014-11-25,4.867083333333333,,4.867083333333333
156,2014-11-26,7.107083333333333,,7.107083333333333
156,2014-11-27,23.538749999999997,,23.538749999999997
156,2014-11-28,0.11208333333333333,,0.11208333333333333
156,2014-11-29,1.1616666666666666,,1.1616666666666666
156,2014-11-30,13.65875,,13.65875
156,2014-12-01,23.060000000000002,,23.060000000000002
156,2014-12-02,31.767916666666665,,31.767916666666665
156,2014-12-03,2.6799999999999997,,2.6799999999999997
156,2014-12-04,39.58583333333333,,39.58583333333333
156,2014-12-05,0.0,,0.0
156,2014-12-06,18.887916666666666,,18.887916666666666
156,2014-12-07,48.911249999999995,,48.911249999999995
156,2014-12-08,27.153750000000002,,27.153750000000002
156,2014-12-09,42.67458333333334,,42.67458333333334
156,2014-12-10,2.5729166666666665,,2.5729166666666665
156,2014-12-11,0.025833333333333333,,0.025833333333333333
156,2014-12-12,0.15375,,0.15375
156,2014-12-13,0.14083333333333334,,0.14083333333333334
156,2014-12-14,7.171666666666667,,7.171666666666667
156,2014-12-15,13.268333333333333,,13.268333333333333
156,2014-12-16,8.987083333333333,,8.987083333333333
156,2014-12-17,5.065,,5.065
156,2014-12-18,2.4529166666666664,,2.4529166666666664
156,2014-12-19,13.380416666666667,,13.380416666666667
156,2014-12-20,13.94,,13.94
156,2014-12-21,12.012916666666667,,12.012916666666667
156,2014-12-22,41.0,,41.0
156,2014-12-23,14.7425,,14.7425
156,2014-12-24,16.458333333333332,,16.458333333333332
156,2014-12-25,10.887916666666667,,10.887916666666667
156,2014-12-26,45.791666666666664,,45.791666666666664
156,2014-12-27,27.97375,,27.97375
156,2014-12-28,12.927083333333334,,12.927083333333334
156,2014-12-29,18.034166666666668,,18.034166666666668
156,2014-12-30,23.927083333333332,,23.927083333333332
156,2014-12-31,10.577916666666667,,10.577916666666667
156,2015-01-01,20.106666666666666,,20.106666666666666
156,2015-01-02,20.695416666666667,,20.695416666666667
156,2015-01-03,6.445416666666667,,6.445416666666667
156,2015-01-04,6.213333333333334,,6.213333333333334
156,2015-01-05,19.627916666666668,,19.627916666666668
156,2015-01-06,4.778333333333333,,4.778333333333333
156,2015-01-07,0.06791666666666667,,0.06791666666666667
156,2015-01-08,10.213333333333333,,10.213333333333333
156,2015-01-09,12.047083333333333,,12.047083333333333
156,2015-01-10,0.04416666666666667,,0.04416666666666667
156,2015-01-11,0.2733333333333333,,0.2733333333333333
156,2015-01-12,0.028749999999999998,,0.028749999999999998
156,2015-01-13,0.018333333333333333,,0.018333333333333333
156,2015-01-14,0.020833333333333332,,0.020833333333333332
156,2015-01-15,0.04666666666666667,,0.04666666666666667
156,2015-01-16,4.132916666666667,,4.132916666666667
156,2015-01-17,2.987083333333333,,2.987083333333333
156,2015-01-18,13.213333333333333,,13.213333333333333
156,2015-01-19,15.854166666666666,,15.854166666666666
156,2015-01-20,28.086250000000003,,28.086250000000003
156,2015-01-21,32.96083333333333,,32.96083333333333
156,2015-01-22,5.979166666666667,,5.979166666666667
156,2015-01-23,23.260416666666668,,23.260416666666668
156,2015-01-24,7.84625,,7.84625
156,2015-01-25,18.291666666666668,,18.291666666666668
156,2015-01-26,8.862083333333333,,8.862083333333333
156,2015-01-27,2.9270833333333335,,2.9270833333333335
156,2015-01-28,6.132916666666667,,6.132916666666667
156,2015-01-29,1.0595833333333333,,1.0595833333333333
156,2015-01-30,0.8125,,0.8125
156,2015-01-31,1.40625,,1.40625
156,2015-02-01,0.9404166666666667,,0.9404166666666667
156,2015-02-02,0.025833333333333333,,0.025833333333333333
156,2015-02-03,0.020833333333333332,,0.020833333333333332
156,2015-02-04,0.020833333333333332,,0.020833333333333332
156,2015-02-05,0.02625,,0.02625
156,2015-02-06,0.020833333333333332,,0.020833333333333332
156,2015-02-07,0.017916666666666668,,0.017916666666666668
156,2015-02-08,0.028749999999999998,,0.028749999999999998
156,2015-02-09,0.018333333333333333,,0.018333333333333333
156,2015-02-10,0.020833333333333332,,0.020833333333333332
156,2015-02-11,0.025833333333333333,,0.025833333333333333
156,2015-02-12,0.028749999999999998,,0.028749999999999998
156,2015-02-13,0.018333333333333333,,0.018333333333333333
156,2015-02-14,0.020833333333333332,,0.020833333333333332
156,2015-02-15,0.020833333333333332,,0.020833333333333332
156,2015-02-16,0.018333333333333333,,0.018333333333333333
156,2015-02-17,0.025833333333333333,,0.025833333333333333
156,2015-02-18,0.020833333333333332,,0.020833333333333332
156,2015-02-19,0.0,,0.0
156,2015-02-20,0.015416666666666667,,0.015416666666666667
156,2015-02-21,0.018333333333333333,,0.018333333333333333
156,2015-02-22,0.020833333333333332,,0.020833333333333332
156,2015-02-23,0.03375,,0.03375
156,2015-02-24,0.018333333333333333,,0.018333333333333333
156,2015-02-25,0.020833333333333332,,0.020833333333333332
156,2015-02-26,0.020833333333333332,,0.020833333333333332
156,2015-02-27,0.018333333333333333,,0.018333333333333333
156,2015-02-28,0.020833333333333332,,0.020833333333333332
156,2015-03-01,0.020833333333333332,,0.020833333333333332
156,2015-03-02,0.025833333333333333,,0.025833333333333333
156,2015-03-03,0.020833333333333332,,0.020833333333333332
156,2015-03-04,0.018333333333333333,,0.018333333333333333
156,2015-03-05,0.24750000000000003,,0.24750000000000003
156,2015-03-06,0.4191666666666667,,0.4191666666666667
156,2015-03-07,0.03375,,0.03375
156,2015-03-08,0.23458333333333334,,0.23458333333333334
156,2015-03-09,2.1845833333333333,,2.1845833333333333
156,2015-03-10,3.234583333333333,,3.234583333333333
156,2015-03-11,39.854166666666664,,39.854166666666664
156,2015-03-12,73.16666666666667,,73.16666666666667
156,2015-03-13,62.85166666666667,,62.85166666666667
156,2015-03-14,18.747083333333332,,18.747083333333332
156,2015-03-15,26.680000000000003,,26.680000000000003
156,2015-03-16,65.74708333333334,,65.74708333333334
156,2015-03-17,89.40625,,89.40625
156,2015-03-18,104.16666666666667,,104.16666666666667
156,2015-03-19,118.09375,,118.09375
156,2015-03-20,63.854166666666664,,63.854166666666664
156,2015-03-21,15.453333333333333,,15.453333333333333
156,2015-03-22,103.67166666666667,,103.67166666666667
156,2015-03-23,124.62,,124.62
156,2015-03-24,122.36208333333333,,122.36208333333333
156,2015-03-25,30.046666666666667,,30.046666666666667
156,2015-03-26,7.09125,,7.09125
156,2015-03-27,20.952916666666667,,20.952916666666667
156,2015-03-28,45.213750000000005,,45.213750000000005
156,2015-03-29,132.7475,,132.7475
156,2015-03-30,45.58583333333333,,45.58583333333333
156,2015-03-31,55.666666666666664,,55.666666666666664
156,2015-04-01,131.49458333333334,,131.49458333333334
156,2015-04-02,82.55208333333333,,82.55208333333333
156,2015-04-03,53.38041666666667,,53.38041666666667
156,2015-04-04,108.08083333333333,,108.08083333333333
156,2015-04-05,8.885416666666666,,8.885416666666666